Time,TemperatureF,DewpointF,PressureIn,WindDirection,WindDirectionDegrees,WindSpeedMPH,WindSpeedGustMPH,Humidity,HourlyPrecipIn,Conditions,Clouds,dailyrainin,SoftwareType,DateUTC
2013-10-01 00:14:00,55.4,33.0,29.70,SW,229,0.0,0.0,43,0.00,,,0.00,weatherlink.com 1.10,2013-10-01 06:14:00,
2013-10-01 00:29:00,54.8,32.0,29.70,SW,229,0.0,0.0,43,0.00,,,0.00,weatherlink.com 1.10,2013-10-01 06:29:00,
2013-10-01 00:44:00,54.3,33.0,29.70,SW,229,0.0,0.0,45,0.00,,,0.00,weatherlink.com 1.10,2013-10-01 06:44:00,
2013-10-01 00:59:00,54.0,32.0,29.70,SW,229,0.0,0.0,43,0.00,,,0.00,weatherlink.com 1.10,2013-10-01 06:59:00,
2013-10-01 01:14:00,53.3,33.0,29.70,SW,229,0.0,0.0,47,0.00,,,0.00,weatherlink.com 1.10,2013-10-01 07:14:00,
2013-10-01 01:29:00,52.3,33.0,29.70,SW,229,0.0,0.0,49,0.00,,,0.00,weatherlink.com 1.10,2013-10-01 07:29:00,
2013-10-01 01:44:00,51.9,35.0,29.71,SW,229,0.0,0.0,52,0.00,,,0.00,weatherlink.com 1.10,2013-10-01 07:44:00,
2013-10-01 01:59:00,52.3,31.0,29.71,SW,229,0.0,0.0,45,0.00,,,0.00,weatherlink.com 1.10,2013-10-01 07:59:00,
2013-10-01 02:14:00,52.4,32.0,29.71,SW,231,0.0,0.0,47,0.00,,,0.00,weatherlink.com 1.10,2013-10-01 08:14:00,
2013-10-01 02:29:00,52.4,32.0,29.72,SW,231,0.0,0.0,47,0.00,,,0.00,weatherlink.com 1.10,2013-10-01 08:29:00,
2013-10-01 02:44:00,51.7,33.0,29.72,SW,231,0.0,0.0,50,0.00,,,0.00,weatherlink.com 1.10,2013-10-01 08:44:00,
2013-10-01 02:59:00,51.5,34.0,29.72,SW,231,0.0,0.0,51,0.00,,,0.00,weatherlink.com 1.10,2013-10-01 08:59:00,
2013-10-01 03:15:00,50.8,33.0,29.71,SW,231,0.0,0.0,51,0.00,,,0.00,weatherlink.com 1.10,2013-10-01 09:15:00,
2013-10-01 03:30:00,49.6,32.0,29.71,SW,231,0.0,0.0,52,0.00,,,0.00,weatherlink.com 1.10,2013-10-01 09:30:00,
2013-10-01 03:45:00,49.2,33.0,29.71,SW,231,0.0,0.0,53,0.00,,,0.00,weatherlink.com 1.10,2013-10-01 09:45:00,
2013-10-01 04:00:00,49.1,33.0,29.72,SW,231,0.0,0.0,55,0.00,,,0.00,weatherlink.com 1.10,2013-10-01 10:00:00,
2013-10-01 04:15:00,49.8,31.0,29.72,SW,231,0.0,0.0,49,0.00,,,0.00,weatherlink.com 1.10,2013-10-01 10:15:00,
2013-10-01 04:30:00,49.9,32.0,29.72,SW,231,0.0,0.0,51,0.00,,,0.00,weatherlink.com 1.10,2013-10-01 10:30:00,
2013-10-01 04:45:00,49.7,31.0,29.72,SW,231,0.0,0.0,49,0.00,,,0.00,weatherlink.com 1.10,2013-10-01 10:45:00,
2013-10-01 05:15:00,49.8,33.0,29.73,SW,231,0.0,0.0,52,0.00,,,0.00,weatherlink.com 1.10,2013-10-01 11:15:00,
2013-10-01 05:30:00,49.0,32.0,29.74,SW,231,0.0,0.0,53,0.00,,,0.00,weatherlink.com 1.10,2013-10-01 11:30:00,
2013-10-01 05:45:00,48.1,33.0,29.74,SW,231,0.0,0.0,57,0.00,,,0.00,weatherlink.com 1.10,2013-10-01 11:45:00,
2013-10-01 06:00:00,47.6,33.0,29.75,SW,231,0.0,0.0,57,0.00,,,0.00,weatherlink.com 1.10,2013-10-01 12:00:00,
2013-10-01 06:15:00,47.4,32.0,29.75,SW,231,0.0,0.0,56,0.00,,,0.00,weatherlink.com 1.10,2013-10-01 12:15:00,
2013-10-01 06:30:00,47.7,33.0,29.75,SW,231,0.0,0.0,57,0.00,,,0.00,weatherlink.com 1.10,2013-10-01 12:30:00,
2013-10-01 06:45:00,47.6,32.0,29.75,SW,231,0.0,0.0,56,0.00,,,0.00,weatherlink.com 1.10,2013-10-01 12:45:00,
2013-10-01 07:00:00,47.6,31.0,29.75,SW,231,0.0,0.0,53,0.00,,,0.00,weatherlink.com 1.10,2013-10-01 13:00:00,
2013-10-01 07:15:00,47.3,31.0,29.76,SW,231,0.0,0.0,53,0.00,,,0.00,weatherlink.com 1.10,2013-10-01 13:15:00,
2013-10-01 07:30:00,48.4,29.0,29.76,SW,225,0.0,0.0,48,0.00,,,0.00,weatherlink.com 1.10,2013-10-01 13:30:00,
2013-10-01 08:00:00,54.9,32.0,29.77,WSW,242,0.0,0.0,42,0.00,,,0.00,weatherlink.com 1.10,2013-10-01 14:00:00,
2013-10-01 08:16:00,57.9,32.0,29.78,WSW,241,0.0,0.0,37,0.00,,,0.00,weatherlink.com 1.10,2013-10-01 14:16:00,
2013-10-01 08:30:00,59.3,31.0,29.78,South,182,0.0,0.0,35,0.00,,,0.00,weatherlink.com 1.10,2013-10-01 14:30:00,
2013-10-01 08:45:00,60.2,32.0,29.78,SSE,158,0.0,0.0,34,0.00,,,0.00,weatherlink.com 1.10,2013-10-01 14:45:00,
2013-10-01 09:00:00,62.2,31.0,29.79,SSE,158,0.0,0.0,31,0.00,,,0.00,weatherlink.com 1.10,2013-10-01 15:00:00,
2013-10-01 09:16:00,65.2,32.0,29.79,South,180,0.0,0.0,29,0.00,,,0.00,weatherlink.com 1.10,2013-10-01 15:16:00,
2013-10-01 09:30:00,66.7,28.0,29.79,East,92,0.0,0.0,23,0.00,,,0.00,weatherlink.com 1.10,2013-10-01 15:30:00,
2013-10-01 09:45:00,66.8,27.0,29.79,NE,37,0.0,0.0,22,0.00,,,0.00,weatherlink.com 1.10,2013-10-01 15:45:00,
2013-10-01 10:01:00,68.1,25.0,29.79,NE,49,0.0,0.0,20,0.00,,,0.00,weatherlink.com 1.10,2013-10-01 16:01:00,
2013-10-01 10:16:00,69.8,27.0,29.78,ENE,58,0.0,0.0,20,0.00,,,0.00,weatherlink.com 1.10,2013-10-01 16:16:00,
2013-10-01 10:31:00,70.8,25.0,29.78,NE,36,0.0,0.0,18,0.00,,,0.00,weatherlink.com 1.10,2013-10-01 16:31:00,
2013-10-01 10:46:00,69.6,24.0,29.78,NNW,331,0.0,2.0,18,0.00,,,0.00,weatherlink.com 1.10,2013-10-01 16:46:00,
2013-10-01 11:01:00,70.3,25.0,29.78,NNE,22,0.0,2.0,18,0.00,,,0.00,weatherlink.com 1.10,2013-10-01 17:01:00,
2013-10-01 11:16:00,71.7,27.0,29.77,East,87,0.0,2.0,19,0.00,,,0.00,weatherlink.com 1.10,2013-10-01 17:16:00,
2013-10-01 11:31:00,73.4,27.0,29.77,WSW,257,2.0,2.0,18,0.00,,,0.00,weatherlink.com 1.10,2013-10-01 17:31:00,
2013-10-01 11:46:00,73.0,27.0,29.76,SW,234,0.0,3.0,18,0.00,,,0.00,weatherlink.com 1.10,2013-10-01 17:46:00,
2013-10-01 12:01:00,73.9,26.0,29.76,South,169,0.0,1.0,17,0.00,,,0.00,weatherlink.com 1.10,2013-10-01 18:01:00,
2013-10-01 12:16:00,74.9,29.0,29.76,WSW,242,0.0,3.0,18,0.00,,,0.00,weatherlink.com 1.10,2013-10-01 18:16:00,
2013-10-01 12:31:00,75.5,29.0,29.75,WSW,237,0.0,4.0,18,0.00,,,0.00,weatherlink.com 1.10,2013-10-01 18:31:00,
2013-10-01 12:46:00,76.0,27.0,29.74,South,186,0.0,5.0,16,0.00,,,0.00,weatherlink.com 1.10,2013-10-01 18:46:00,
2013-10-01 13:01:00,77.6,28.0,29.74,WSW,250,1.0,2.0,16,0.00,,,0.00,weatherlink.com 1.10,2013-10-01 19:01:00,
2013-10-01 13:16:00,78.0,27.0,29.73,NNW,339,1.0,5.0,15,0.00,,,0.00,weatherlink.com 1.10,2013-10-01 19:16:00,
2013-10-01 13:31:00,79.2,26.0,29.73,SW,229,0.0,5.0,14,0.00,,,0.00,weatherlink.com 1.10,2013-10-01 19:31:00,
2013-10-01 13:46:00,79.0,26.0,29.72,NNE,15,0.0,6.0,14,0.00,,,0.00,weatherlink.com 1.10,2013-10-01 19:46:00,
2013-10-01 14:01:00,79.9,25.0,29.71,NW,304,1.0,9.0,13,0.00,,,0.00,weatherlink.com 1.10,2013-10-01 20:01:00,
2013-10-01 14:16:00,81.1,26.0,29.70,NNW,338,0.0,5.0,13,0.00,,,0.00,weatherlink.com 1.10,2013-10-01 20:16:00,
2013-10-01 14:31:00,80.5,25.0,29.69,NNE,30,2.0,6.0,13,0.00,,,0.00,weatherlink.com 1.10,2013-10-01 20:31:00,
2013-10-01 14:46:00,81.1,24.0,29.68,NNW,331,0.0,4.0,12,0.00,,,0.00,weatherlink.com 1.10,2013-10-01 20:46:00,
2013-10-01 15:01:00,82.7,25.0,29.68,WSW,252,0.0,3.0,12,0.00,,,0.00,weatherlink.com 1.10,2013-10-01 21:01:00,
2013-10-01 15:16:00,82.7,23.0,29.68,West,271,0.0,5.0,11,0.00,,,0.00,weatherlink.com 1.10,2013-10-01 21:16:00,
2013-10-01 15:31:00,83.7,24.0,29.68,South,182,0.0,1.0,11,0.00,,,0.00,weatherlink.com 1.10,2013-10-01 21:31:00,
2013-10-01 15:46:00,83.7,22.0,29.67,NNW,332,0.0,6.0,10,0.00,,,0.00,weatherlink.com 1.10,2013-10-01 21:46:00,
2013-10-01 16:01:00,84.4,22.0,29.66,North,11,0.0,2.0,10,0.00,,,0.00,weatherlink.com 1.10,2013-10-01 22:01:00,
2013-10-01 16:16:00,83.6,24.0,29.66,SSE,160,0.0,11.0,11,0.00,,,0.00,weatherlink.com 1.10,2013-10-01 22:16:00,
2013-10-01 16:31:00,84.0,24.0,29.66,South,180,0.0,5.0,11,0.00,,,0.00,weatherlink.com 1.10,2013-10-01 22:31:00,
2013-10-01 16:46:00,83.8,19.0,29.66,WNW,292,1.0,4.0,9,0.00,,,0.00,weatherlink.com 1.10,2013-10-01 22:46:00,
2013-10-01 17:02:00,82.9,21.0,29.66,WSW,247,0.0,4.0,10,0.00,,,0.00,weatherlink.com 1.10,2013-10-01 23:02:00,
2013-10-01 17:17:00,83.7,22.0,29.66,SSW,200,0.0,2.0,10,0.00,,,0.00,weatherlink.com 1.10,2013-10-01 23:17:00,
2013-10-01 17:32:00,83.3,23.0,29.66,SW,225,0.0,5.0,11,0.00,,,0.00,weatherlink.com 1.10,2013-10-01 23:32:00,
2013-10-01 17:47:00,83.1,21.0,29.66,WSW,238,0.0,3.0,10,0.00,,,0.00,weatherlink.com 1.10,2013-10-01 23:47:00,
2013-10-01 18:02:00,81.4,20.0,29.66,South,187,1.0,6.0,10,0.00,,,0.00,weatherlink.com 1.10,2013-10-02 00:02:00,
2013-10-01 18:17:00,80.3,23.0,29.66,South,186,1.0,4.0,12,0.00,,,0.00,weatherlink.com 1.10,2013-10-02 00:17:00,
2013-10-01 18:32:00,79.3,24.0,29.66,South,188,0.0,1.0,13,0.00,,,0.00,weatherlink.com 1.10,2013-10-02 00:32:00,
2013-10-01 18:47:00,77.0,27.0,29.66,South,186,0.0,0.0,16,0.00,,,0.00,weatherlink.com 1.10,2013-10-02 00:47:00,
2013-10-01 19:02:00,75.0,30.0,29.66,South,186,0.0,0.0,19,0.00,,,0.00,weatherlink.com 1.10,2013-10-02 01:02:00,
2013-10-01 19:17:00,72.4,31.0,29.66,South,186,0.0,0.0,22,0.00,,,0.00,weatherlink.com 1.10,2013-10-02 01:17:00,
2013-10-01 19:32:00,70.1,33.0,29.66,South,186,0.0,0.0,25,0.00,,,0.00,weatherlink.com 1.10,2013-10-02 01:32:00,
2013-10-01 19:47:00,68.2,34.0,29.66,South,186,0.0,0.0,28,0.00,,,0.00,weatherlink.com 1.10,2013-10-02 01:47:00,
2013-10-01 20:02:00,66.9,33.0,29.67,South,186,0.0,0.0,28,0.00,,,0.00,weatherlink.com 1.10,2013-10-02 02:02:00,
2013-10-01 20:17:00,65.8,32.0,29.67,South,186,0.0,0.0,28,0.00,,,0.00,weatherlink.com 1.10,2013-10-02 02:17:00,
2013-10-01 20:32:00,64.9,33.0,29.68,South,186,0.0,0.0,31,0.00,,,0.00,weatherlink.com 1.10,2013-10-02 02:32:00,
2013-10-01 20:47:00,63.9,33.0,29.68,South,186,0.0,0.0,31,0.00,,,0.00,weatherlink.com 1.10,2013-10-02 02:47:00,
2013-10-01 21:02:00,62.7,34.0,29.69,South,186,0.0,0.0,34,0.00,,,0.00,weatherlink.com 1.10,2013-10-02 03:02:00,
2013-10-01 21:17:00,62.1,30.0,29.70,South,186,0.0,0.0,30,0.00,,,0.00,weatherlink.com 1.10,2013-10-02 03:17:00,
2013-10-01 21:32:00,61.8,32.0,29.70,South,186,0.0,0.0,33,0.00,,,0.00,weatherlink.com 1.10,2013-10-02 03:32:00,
2013-10-01 21:47:00,60.7,33.0,29.70,South,186,0.0,0.0,35,0.00,,,0.00,weatherlink.com 1.10,2013-10-02 03:47:00,
2013-10-01 22:02:00,60.5,30.0,29.70,SE,132,0.0,0.0,31,0.00,,,0.00,weatherlink.com 1.10,2013-10-02 04:02:00,
2013-10-01 22:17:00,60.3,31.0,29.70,SE,132,0.0,0.0,33,0.00,,,0.00,weatherlink.com 1.10,2013-10-02 04:17:00,
2013-10-01 22:32:00,59.1,31.0,29.71,SE,132,0.0,0.0,35,0.00,,,0.00,weatherlink.com 1.10,2013-10-02 04:32:00,
2013-10-01 22:47:00,57.9,32.0,29.72,SE,132,0.0,0.0,38,0.00,,,0.00,weatherlink.com 1.10,2013-10-02 04:47:00,
2013-10-01 23:02:00,56.9,33.0,29.72,SE,132,0.0,0.0,40,0.00,,,0.00,weatherlink.com 1.10,2013-10-02 05:02:00,
2013-10-01 23:17:00,56.5,32.0,29.72,SE,132,0.0,0.0,39,0.00,,,0.00,weatherlink.com 1.10,2013-10-02 05:17:00,
2013-10-01 23:32:00,56.1,32.0,29.72,SE,132,0.0,0.0,41,0.00,,,0.00,weatherlink.com 1.10,2013-10-02 05:32:00,
2013-10-01 23:47:00,55.8,30.0,29.72,SE,132,0.0,0.0,38,0.00,,,0.00,weatherlink.com 1.10,2013-10-02 05:47:00,